[[{"header":{"parameterUnit":"m.s-1","parameterCategory":1,"la1":30.2991,"la2":30.254,"lo1":-89.0895,"lo2":-89.0444,"dy":0.0017,"dx":0.0017,"nx":28,"ny":28,"refTime":"2024-04-28T03:00:00:Z","depth":0,"parameterNumber":2,"parameterNumberName":"U-component_of_WINDS"},"data":[0,0,0,0,0,0,0,0,0,0,0,0,0,0,0,0,0,0,0,0,0,0,0,0,0,0,0,0,0,0,0,0,0,0,0,0,0,0,0,0,0,0,0,0,0,0,0,0,0,0,0,0,0,0,0,0,0,0,-5.4093,-5.4095,0,-5.4266,-5.4268,-5.427,-5.4282,-5.428,-5.4279,-5.4277,-5.4452,-5.4458,-5.4464,0,0,0,0,0,0,0,0,0,0,0,0,0,-5.3771,-5.3777,-5.4092,-5.4095,-5.4097,-5.4265,-5.4268,-5.427,-5.4283,-5.428,-5.4278,-5.4276,-5.4449,-5.4457,-5.4465,0,0,0,0,0,0,0,0,0,0,0,0,0,-5.3924,-5.3779,-5.4092,-5.4124,-5.4128,-5.4265,-5.4268,-5.4271,-5.4283,-5.428,-5.4277,-5.4275,-5.4447,-5.4456,-5.4466,-5.4582,0,0,-5.4495,-5.4499,0,0,0,0,0,0,0,0,-5.3916,-5.3936,-5.4117,-5.4122,-5.4127,-5.425,-5.4219,-5.4375,-5.4284,-5.4224,-5.4277,-5.4273,-5.4386,-5.4401,-5.444,-5.4591,-5.4598,-5.4496,-5.4502,-5.4506,-5.4509,0,0,0,0,0,0,0,-5.3905,-5.3929,-5.4161,-5.4119,-5.4126,-5.4128,-5.4147,-5.4248,-5.4319,-5.4229,-5.4231,-5.4251,-5.4389,-5.443,-5.4444,-5.4601,-5.4496,-5.4504,-5.451,-5.4514,-5.4856,-5.4859,0,0,0,0,0,0,-5.3889,-5.392,-5.4155,-5.4166,-5.4012,-5.4137,-5.4157,-5.4213,-5.4318,-5.4331,-5.4253,-5.4251,-5.4415,-5.4432,-5.445,-5.4593,-5.4506,-5.4515,-5.4521,-5.4853,-5.4857,-5.486,0,0,0,0,0,0,-5.3882,-5.391,-5.4148,-5.4043,-5.4074,-5.4145,-5.4208,-5.4218,-5.4259,-5.4336,-5.4349,-5.4283,-5.4414,-5.4436,-5.455,-5.4599,-5.4519,-5.4528,-5.4849,-5.4854,-5.4858,-5.4879,0,0,0,0,0,0,-5.3872,-5.3907,-5.3952,-5.4044,-5.408,-5.4245,-5.4211,-5.4223,-5.4276,-5.4275,-5.4367,-5.438,-5.4413,-5.4535,-5.4559,-5.4611,-5.4536,-5.4845,-5.4851,-5.4857,-5.4874,-5.4884,-5.4893,0,0,0,0,0,-5.3861,-5.3951,-5.3954,-5.3983,-5.4138,-5.4248,-5.4268,-5.4306,-5.428,-5.4326,-5.4376,-5.4377,-5.459,-5.4547,-5.4574,-5.4629,-5.4842,-5.4849,-5.4856,-5.487,-5.4882,-5.4892,0,0,0,0,0,0,-5.3861,-5.3963,-5.3968,-5.4091,-5.4161,-5.425,-5.4309,-5.4317,-5.4395,-5.439,-5.4433,-5.4454,-5.4565,-5.4609,-5.4558,-5.4747,-5.4713,-5.4726,-5.4714,-5.4726,-5.4735,-5.4721,-5.4544,0,0,0,0,0,-5.3876,-5.3958,-5.4042,-5.4142,-5.4177,-5.4237,-5.4287,-5.431,-5.4383,-5.4413,-5.4471,-5.4542,-5.4625,-5.4678,-5.4759,-5.4882,-5.4901,-5.4933,-5.4942,-5.4949,-5.4959,-5.5027,-5.5042,-5.4885,-5.4885,-5.4884,0,0,-5.3906,-5.3972,-5.4021,-5.4144,-5.4201,-5.4284,-5.4262,-5.4351,-5.4413,-5.4426,-5.4536,-5.4581,-5.4664,-5.4782,-5.4837,-5.4821,-5.5008,-5.4959,-5.4964,-5.497,-5.5036,-5.5051,-5.5064,-5.489,-5.4889,-5.4888,0,0,-5.4004,-5.4062,-5.4152,-5.421,-5.4297,-5.4336,-5.4358,-5.4447,-5.4477,-5.4589,-5.4601,-5.4675,-5.4817,-5.4875,-5.4923,-5.5045,-5.5048,-5.507,-5.5116,-5.5182,-5.5194,-5.5205,-5.5247,-5.5262,-5.508,-5.508,-5.508,0,-5.403,-5.4156,-5.4196,-5.4285,-5.4338,-5.4356,-5.4447,-5.4501,-5.4609,-5.4645,-5.4627,-5.4807,-5.4864,-5.4995,-5.5025,-5.5064,-5.5089,-5.5058,-5.5189,-5.5201,-5.5212,-5.5252,-5.5268,-5.5082,-5.5082,-5.5082,-5.5082,0,-5.4184,-5.4271,-5.4333,-5.4438,-5.4499,-5.4588,-5.4641,-5.4697,-5.4716,-5.4757,-5.487,-5.494,-5.5034,-5.5068,-5.5086,-5.5202,-5.519,-5.5181,-5.5146,-5.5228,-5.5266,-5.5282,-5.5085,-5.5084,-5.5084,-5.5083,0,0,-5.4284,-5.4411,-5.4433,-5.4481,-5.4579,-5.4647,-5.4737,-5.4831,-5.4878,-5.4953,-5.5028,-5.515,-5.5141,-5.5196,-5.5221,-5.5279,-5.5369,-5.5262,-5.5265,-5.5278,-5.55,-5.5505,-5.5522,-5.5373,-5.5377,-5.5379,-5.5492,0,-5.4391,-5.4551,-5.4591,-5.4728,-5.4809,-5.4828,-5.4906,-5.4975,-5.5016,-5.5091,-5.5137,-5.5221,-5.5205,-5.5238,-5.5296,-5.5346,-5.5414,-5.5338,-5.5443,-5.5446,-5.5419,-5.5543,-5.5548,-5.5652,-5.5508,-5.5511,-5.5512,0,-5.4536,-5.4615,-5.476,-5.4848,-5.4883,-5.4953,-5.5042,-5.5114,-5.5191,-5.5218,-5.528,-5.53,-5.5394,-5.5357,-5.5487,-5.5434,-5.548,-5.5511,-5.5516,-5.5525,-5.5482,-5.5553,-5.5686,-5.5701,-5.5537,-5.5535,-5.5533,0,-5.4592,-5.4735,-5.484,-5.4881,-5.4986,-5.5035,-5.5081,-5.5156,-5.521,-5.5288,-5.5323,-5.5411,-5.5459,-5.5526,-5.5569,-5.5539,-5.5695,-5.5662,-5.5718,-5.5717,-5.5748,-5.5745,-5.5888,-5.5781,-5.5781,-5.5781,-5.5781,0,-5.4706,-5.4794,-5.4867,-5.4931,-5.503,-5.5075,-5.5172,-5.5218,-5.5285,-5.5359,-5.5381,-5.5449,-5.5503,-5.5579,-5.5614,-5.5715,-5.5737,-5.576,-5.5768,-5.5757,-5.5754,-5.5785,-5.5778,-5.5785,-5.5784,-5.5783,-5.5783,0,-5.4785,-5.4837,-5.4953,-5.5044,-5.5069,-5.5137,-5.5215,-5.5278,-5.5321,-5.5414,-5.5438,-5.5505,-5.5596,-5.5646,-5.576,-5.5783,-5.5896,-5.5901,-5.5869,-5.5872,-5.5925,-5.5918,-5.6091,-5.6115,-5.5994,-5.5995,-5.5996,0,-5.4853,-5.4921,-5.5019,-5.507,-5.5117,-5.5199,-5.5255,-5.5302,-5.5359,-5.5453,-5.5505,-5.5597,-5.5673,-5.5816,-5.5875,-5.5962,-5.5968,-5.6023,-5.5981,-5.5968,-5.5967,-5.5961,-5.5968,-5.6029,-5.603,-5.6031,-5.6031,0,-5.4968,-5.499,-5.507,-5.5158,-5.5224,-5.5296,-5.5367,-5.5408,-5.5467,-5.5529,-5.5622,-5.5681,-5.5798,-5.5888,-5.598,-5.6027,-5.6039,-5.6045,-5.6062,-5.605,-5.6028,-5.6039,-5.5886,-5.604,-5.6039,-5.6038,-5.6038,-5.6038,-5.5042,-5.5103,-5.5182,-5.5269,-5.5328,-5.5394,-5.5458,-5.551,-5.5588,-5.5687,-5.571,-5.5808,-5.5885,-5.601,-5.6059,-5.6136,-5.6126,-5.6151,-5.6157,-5.6162,-5.6163,-5.6018,-5.6153,-5.6153,-5.6153,-5.6153,-5.6153,0,-5.5157,-5.5208,-5.5289,-5.5388,-5.5457,-5.5463,-5.5543,-5.5599,-5.5685,-5.5756,-5.5831,-5.5938,-5.6026,-5.6092,-5.6183,-5.6231,-5.6239,-5.6253,-5.6249,-5.6259,-5.6168,-5.6143,-5.6246,-5.6246,-5.6245,-5.6245,-5.6245,-5.6245,-5.5224,-5.5328,-5.536,-5.5493,-5.5544,-5.564,-5.5685,-5.5746,-5.5803,-5.5921,-5.5995,-5.6038,-5.6107,-5.6203,-5.6284,-5.6301,-5.6333,-5.6346,-5.6363,-5.6276,-5.6266,-5.6256,-5.6233,-5.6353,-5.6353,-5.6448,-5.6449,-5.645]},{"header":{"parameterUnit":"m.s-1","parameterCategory":1,"la1":30.2991,"la2":30.254,"lo1":-89.0895,"lo2":-89.0444,"dy":0.0017,"dx":0.0017,"nx":28,"ny":28,"refTime":"2024-04-28T03:00:00:Z","depth":0,"parameterNumber":3,"parameterNumberName":"V-component_of_WINDS"},"data":[0,0,0,0,0,0,0,0,0,0,0,0,0,0,0,0,0,0,0,0,0,0,0,0,0,0,0,0,0,0,0,0,0,0,0,0,0,0,0,0,0,0,0,0,0,0,0,0,0,0,0,0,0,0,0,0,0,0,5.5488,5.5489,0,5.5577,5.5578,5.5579,5.5542,5.554,5.5538,5.5536,5.5623,5.5627,5.5631,0,0,0,0,0,0,0,0,0,0,0,0,0,5.5282,5.5286,5.5487,5.5489,5.549,5.5576,5.5578,5.5579,5.5542,5.554,5.5537,5.5535,5.5621,5.5626,5.5632,0,0,0,0,0,0,0,0,0,0,0,0,0,5.5371,5.5287,5.5487,5.5482,5.5483,5.5576,5.5578,5.5579,5.5543,5.554,5.5537,5.5534,5.562,5.5626,5.5632,5.5735,0,0,5.5652,5.5655,0,0,0,0,0,0,0,0,5.5366,5.5379,5.5482,5.5483,5.5483,5.5545,5.5537,5.5631,5.5544,5.552,5.5536,5.5532,5.5599,5.5607,5.5631,5.5739,5.5743,5.5652,5.5656,5.5659,5.5661,0,0,0,0,0,0,0,5.536,5.5375,5.5523,5.5483,5.5484,5.5474,5.5483,5.5555,5.5576,5.5522,5.5519,5.5531,5.5599,5.5624,5.5632,5.5744,5.5652,5.5658,5.5662,5.5664,5.5942,5.5945,0,0,0,0,0,0,5.5354,5.537,5.552,5.5525,5.5416,5.548,5.5491,5.5528,5.5575,5.5579,5.5533,5.5528,5.5615,5.5625,5.5635,5.5759,5.5659,5.5665,5.5669,5.5938,5.5943,5.5946,0,0,0,0,0,0,5.535,5.5368,5.5516,5.5447,5.5465,5.5487,5.553,5.5532,5.5557,5.5584,5.5587,5.5556,5.5613,5.5626,5.5711,5.5761,5.5668,5.5674,5.5934,5.594,5.5944,5.6007,0,0,0,0,0,0,5.5344,5.5367,5.5407,5.5448,5.5469,5.5592,5.5533,5.5536,5.5569,5.5564,5.5606,5.561,5.5612,5.5702,5.5717,5.5769,5.5679,5.593,5.5937,5.5943,5.6001,5.6014,5.6025,0,0,0,0,0,5.5337,5.542,5.5409,5.5427,5.552,5.5595,5.5606,5.5608,5.5573,5.5613,5.563,5.5608,5.5754,5.5711,5.5728,5.5782,5.5926,5.5935,5.5942,5.5995,5.6011,5.6025,0,0,0,0,0,0,5.5382,5.5425,5.5414,5.5513,5.5551,5.5588,5.5639,5.5625,5.5672,5.5665,5.5664,5.5674,5.5761,5.578,5.5731,5.5884,5.5835,5.5846,5.5869,5.5884,5.5896,5.589,5.5684,0,0,0,0,0,5.5404,5.5462,5.5496,5.558,5.56,5.5616,5.5649,5.5647,5.5686,5.5701,5.5724,5.5761,5.5815,5.5851,5.5902,5.6003,5.6012,5.6049,5.6061,5.6071,5.6081,5.6136,5.6153,5.5972,5.5972,5.5972,0,0,5.5449,5.548,5.5516,5.559,5.5619,5.5679,5.563,5.5695,5.5739,5.571,5.5792,5.5811,5.5852,5.5946,5.5988,5.5964,5.6133,5.6081,5.6089,5.6094,5.6146,5.6163,5.6179,5.5978,5.5977,5.5976,0,0,5.5561,5.5591,5.5664,5.5695,5.574,5.5751,5.5768,5.5809,5.5821,5.5903,5.5883,5.5935,5.6028,5.6058,5.6086,5.6211,5.6192,5.6228,5.6292,5.6345,5.636,5.6372,5.6417,5.6433,5.6238,5.6238,5.6238,0,5.5611,5.5701,5.5703,5.577,5.5803,5.5782,5.5856,5.5885,5.5944,5.5967,5.5939,5.6057,5.6083,5.6183,5.6214,5.6237,5.6257,5.6222,5.6358,5.637,5.6382,5.6425,5.6441,5.6242,5.6241,5.6241,5.624,0,5.576,5.5823,5.5877,5.5936,5.5975,5.6045,5.6057,5.6096,5.6091,5.6104,5.6188,5.6219,5.6276,5.63,5.6295,5.64,5.6384,5.6357,5.6307,5.6403,5.6443,5.646,5.6247,5.6246,5.6245,5.6244,0,0,5.5903,5.5964,5.5983,5.601,5.6059,5.6107,5.6176,5.6234,5.6267,5.6309,5.6366,5.6446,5.6422,5.6453,5.6451,5.6499,5.6596,5.6466,5.6467,5.6489,5.6714,5.6733,5.6752,5.6584,5.6587,5.659,5.671,0,5.6019,5.6142,5.6146,5.6257,5.6315,5.6296,5.6356,5.6392,5.6406,5.6457,5.6471,5.6528,5.6492,5.6511,5.6557,5.6574,5.6641,5.6566,5.6637,5.6639,5.6627,5.6773,5.6794,5.6906,5.6726,5.6728,5.673,0,5.6171,5.6219,5.6337,5.6378,5.6403,5.6457,5.651,5.6559,5.6599,5.6606,5.6642,5.6633,5.6703,5.6651,5.6747,5.6696,5.6725,5.6738,5.6742,5.6748,5.669,5.6783,5.6942,5.6959,5.6755,5.6753,5.6751,0,5.6264,5.6358,5.6441,5.6464,5.6514,5.6553,5.6575,5.6612,5.6647,5.6693,5.6715,5.6768,5.6797,5.6838,5.6844,5.6806,5.694,5.6889,5.6947,5.6947,5.6976,5.6974,5.7141,5.6995,5.6995,5.6994,5.6994,0,5.6393,5.6466,5.6483,5.6534,5.6615,5.6618,5.6698,5.6717,5.675,5.6804,5.679,5.684,5.6845,5.6897,5.6902,5.698,5.6993,5.7,5.7,5.7001,5.7,5.702,5.7012,5.6999,5.6998,5.6997,5.6996,0,5.651,5.6525,5.6614,5.6654,5.6666,5.6724,5.6758,5.6806,5.6819,5.6887,5.6903,5.6923,5.6983,5.6994,5.7064,5.7067,5.7161,5.7153,5.7148,5.7147,5.7204,5.7199,5.739,5.7415,5.7253,5.7254,5.7255,0,5.6592,5.6647,5.6695,5.673,5.6755,5.6812,5.6848,5.6853,5.6891,5.6941,5.6983,5.7042,5.709,5.7186,5.7206,5.726,5.7254,5.7317,5.7261,5.7261,5.7254,5.7251,5.7257,5.7327,5.7329,5.7331,5.7332,0,5.6735,5.674,5.6792,5.6848,5.6891,5.6935,5.6976,5.7006,5.7016,5.7059,5.7121,5.7158,5.7231,5.7289,5.7343,5.7364,5.735,5.7349,5.7366,5.7367,5.7362,5.7365,5.7177,5.7345,5.7343,5.7342,5.7342,5.7341,5.6837,5.6886,5.6927,5.6986,5.7018,5.7057,5.7105,5.7124,5.7177,5.7237,5.7237,5.7305,5.7343,5.7414,5.7439,5.7492,5.7471,5.7495,5.7501,5.7506,5.7512,5.7354,5.7501,5.7501,5.7501,5.75,5.75,0,5.698,5.7006,5.706,5.7119,5.7166,5.715,5.7194,5.7234,5.7294,5.7332,5.738,5.7451,5.7508,5.7533,5.7589,5.7626,5.7621,5.764,5.7637,5.7643,5.7527,5.7508,5.7643,5.7643,5.7643,5.7643,5.7643,5.7643,5.706,5.7142,5.7152,5.7249,5.7274,5.7342,5.7369,5.7404,5.7434,5.7515,5.7563,5.7579,5.7612,5.767,5.7721,5.7727,5.7748,5.7771,5.7774,5.7665,5.7651,5.7637,5.7618,5.7775,5.7776,5.7885,5.7886,5.7886]}]]